Orbital Elements at Epoch 2459200.5 (2020-Dec-17.0) TDB
Reference: JPL 18 (heliocentric ecliptic J2000)
Element | Value | Uncertainty (1-sigma) | Units |
e | .1376552302962504 | 4.4927e-08 | |
a | 3.029744167870889 | 2.2851e-08 | au |
q | 2.612684036703901 | 1.457e-07 | au |
i | 2.503297509005381 | 4.3228e-06 | deg |
node | 40.32779406132497 | 0.00010485 | deg |
peri | 335.1884235144448 | 0.00010624 | deg |
M | 323.3503062775075 | 2.0306e-05 | deg |
tp | 2459396.598925027942 (2021-Jul-01.09892503) | 0.00011002 | TDB |
period | 1926.226547610501 5.27 | 2.1792e-05 5.966e-08 | d yr |
n | .186893904274439 | 2.1144e-09 | deg/d |
Q | 3.446804299037878 | 2.5997e-08 | au |
|
| | Orbit Determination Parameters
Additional Information
|